Temperature
26 26 25 26 29 30 30 31 31 31 31 31 30 30 29 28 27 25 24 23 22 21 21 21 20 20 19 19 19 19 19 19 19 19 19 19 19 18 18 18 18 18 18 18 18 18 18 18 18
26 26 27 28 30 29 30 31 31 31 31 30 30 29 28 27 26 25 24 22 22 21 20 20 20 20 19 19 19 19 19 19 19 19 18 18 18 18 18 18 18 18 18 18 18 18 18 18 18
27 27 29 30 31 30 30 32 32 32 31 31 30 29 28 27 26 24 23 23 22 21 21 21 20 20 19 19 19 19 19 19 18 18 18 18 18 18 18 18 18 18 18 18 18 18 18 18 18
27 29 31 32 31 32 32 32 33 32 31 31 30 28 27 26 25 24 24 23 22 20 21 21 20 20 20 19 19 19 19 19 18 18 18 18 18 18 18 18 18 18 18 18 18 18 18 18 18
29 31 31 31 32 33 33 33 33 32 32 31 29 28 26 26 25 24 24 23 22 21 21 21 20 20 20 19 19 19 19 19 18 18 18 18 18 18 18 18 18 18 18 18 18 18 18 18 18
31 32 31 31 32 33 34 33 33 32 31 31 29 27 26 25 25 25 24 24 22 21 21 21 21 20 20 19 19 19 19 19 19 18 18 18 18 18 18 18 18 18 18 18 18 18 18 18 18
32 32 31 32 33 33 34 33 33 32 32 31 30 28 26 25 25 25 24 24 23 22 21 21 21 20 20 20 19 19 19 19 19 18 18 18 18 18 18 18 18 18 18 18 18 18 18 18 18
33 33 32 33 33 33 34 33 33 32 32 31 30 28 26 25 25 25 24 24 23 22 21 20 20 20 20 20 19 19 19 19 19 19 18 18 18 18 18 18 18 18 18 18 18 18 18 18 18
34 33 33 33 33 34 34 34 32 32 31 31 30 29 27 25 25 24 24 24 23 22 21 21 20 20 19 19 19 19 19 19 19 18 18 18 18 18 18 18 18 18 18 18 18 18 18 18 18
35 33 34 35 35 35 35 34 32 32 31 30 29 27 26 25 25 24 24 24 23 22 22 21 21 20 20 19 19 19 18 19 18 18 18 18 18 18 18 18 18 18 18 18 18 18 18 18 18
35 34 35 35 35 35 35 34 33 32 31 30 28 27 26 25 25 25 24 24 23 23 22 21 21 21 20 20 19 19 18 18 18 18 18 18 18 18 18 18 18 18 18 18 18 18 17 17 18
35 35 35 35 35 35 35 34 34 33 32 30 29 27 26 25 25 25 24 24 23 22 22 22 21 21 20 20 19 19 19 19 18 18 18 18 18 18 18 18 18 18 18 18 18 17 17 18 18
35 35 35 35 35 35 34 34 34 33 32 30 29 27 26 25 25 25 24 24 23 22 22 21 21 20 20 20 19 19 19 19 18 18 18 18 18 18 18 18 18 18 18 18 18 17 18 18 18
35 35 35 35 35 34 33 33 33 33 32 30 29 27 27 26 26 25 24 23 22 22 21 21 20 20 20 20 20 19 19 19 19 18 18 18 18 18 18 18 18 18 18 18 18 18 18 18 18
34 34 35 35 35 34 33 32 33 33 32 31 29 28 27 27 26 25 24 23 22 22 21 21 20 20 20 20 20 19 19 19 19 18 18 18 18 18 18 18 18 18 18 18 18 18 18 18 18
34 34 33 35 35 35 33 30 33 33 32 31 30 29 27 27 26 25 24 23 22 21 21 21 20 20 20 20 19 19 19 19 19 18 18 18 18 18 18 18 18 18 18 18 18 18 18 18 18
34 33 33 34 35 35 34 32 33 33 32 31 30 29 27 26 26 25 24 23 22 21 21 21 20 20 20 20 20 19 19 19 19 18 18 18 18 18 18 18 18 18 18 18 18 18 18 18 18
33 34 34 34 35 35 34 34 34 34 33 32 30 29 28 26 26 25 24 23 22 21 21 21 20 20 20 19 19 19 19 19 19 18 18 18 18 18 18 18 18 18 18 18 18 18 18 18 18
34 34 34 35 36 35 34 34 34 34 33 32 31 29 28 27 26 24 23 22 22 21 21 21 20 20 20 19 19 19 19 19 19 18 18 18 18 18 18 18 18 18 18 18 18 18 18 18 18
34 33 34 35 35 34 34 33 33 33 33 33 31 30 28 27 25 24 23 22 22 21 21 21 20 20 20 19 19 19 19 18 18 18 18 18 18 18 18 18 18 18 18 18 18 18 18 18 18
33 33 34 34 35 35 34 32 31 32 32 32 32 31 29 27 26 24 23 22 22 21 21 21 20 20 20 19 19 18 18 18 18 18 18 18 18 18 18 18 18 18 18 18 18 18 18 18 18
33 34 34 34 33 33 34 31 31 31 31 32 31 31 29 28 26 25 23 23 22 21 21 20 20 20 20 19 19 18 18 18 19 18 18 18 18 18 18 18 18 18 18 18 18 18 18 18 18
34 35 34 34 33 32 33 32 31 31 31 31 31 30 30 28 26 25 24 23 22 21 21 20 20 20 20 19 19 19 18 18 18 18 18 18 18 18 18 18 18 18 18 18 18 18 18 18 18
34 34 33 33 33 31 32 32 31 32 32 31 31 31 30 28 27 25 24 23 22 21 21 20 20 20 20 19 19 19 19 19 18 18 18 18 18 18 18 18 18 18 18 18 18 18 18 18 18
33 32 31 30 30 29 30 31 32 33 33 33 32 31 30 28 27 25 24 23 22 21 21 20 20 20 19 19 19 19 19 19 19 18 18 18 18 18 18 18 18 18 18 18 18 18 18 17 18
33 32 30 30 29 29 29 31 32 34 33 33 32 31 29 28 27 25 24 23 22 22 21 20 20 20 20 19 19 19 19 19 18 18 18 18 18 18 18 18 18 18 18 18 17 17 17 17 17
33 33 33 32 32 31 31 32 32 33 33 33 32 30 29 28 27 26 24 23 22 22 21 20 20 20 20 19 19 19 19 19 18 18 18 18 18 18 18 18 18 18 18 17 17 17 17 17 17
33 33 33 32 30 30 30 30 30 30 31 32 32 31 29 28 27 26 25 24 23 22 21 20 20 20 20 19 19 19 19 18 18 18 18 18 18 18 18 18 17 17 17 17 17 17 17 17 17
32 32 32 32 32 30 30 29 30 30 31 32 32 31 29 28 27 26 25 24 23 22 21 20 20 20 19 19 19 19 18 18 18 18 18 18 18 17 17 17 17 17 17 17 17 17 17 17 17
33 32 32 30 30 31 31 30 32 32 33 32 32 30 29 28 27 26 25 24 23 22 21 20 20 19 19 19 19 19 18 18 18 18 17 17 17 17 17 17 17 17 17 17 17 17 16 16 16
Wind_Speed
11 12 10 6 2 6 17 18 17 16 16 15 15 15 18 16 12 13 16 22 22 19 18 16 15 15 14 14 14 14 14 14 13 13 13 13 12 12 12 12 12 13 13 13 13 12 12 12 12
11 12 8 4 3 11 15 15 16 15 13 14 16 17 19 18 17 17 18 21 22 20 18 17 16 15 15 14 14 14 13 13 13 12 12 12 12 12 11 12 12 12 12 12 12 12 12 12 11
12 13 5 0 9 14 14 14 13 13 13 14 17 17 14 14 16 15 17 20 21 19 19 18 17 15 15 14 13 13 13 13 12 11 11 11 11 11 11 11 11 12 12 12 12 11 11 11 10
9 6 2 4 14 15 13 12 12 12 13 13 15 13 13 12 15 18 18 20 21 20 20 18 17 15 14 13 13 13 12 12 11 11 11 11 11 11 10 11 11 11 11 12 12 11 10 10 8
8 4 2 8 14 14 13 12 12 13 13 15 17 16 14 14 19 19 17 19 20 20 19 19 17 16 14 13 13 12 12 12 11 11 11 10 11 10 11 11 12 11 11 12 11 10 10 8 7
4 2 2 8 13 12 11 11 12 13 12 13 17 16 12 15 16 16 16 16 20 20 19 18 17 16 14 13 12 12 12 11 11 11 10 10 11 10 11 11 11 11 11 11 10 10 9 8 6
6 2 3 9 11 11 11 11 11 11 10 11 15 14 12 15 14 14 14 15 18 20 18 17 17 15 14 13 12 12 11 11 11 11 10 10 10 11 11 11 11 11 11 11 10 9 8 7 5
3 3 2 8 10 11 10 11 11 11 9 8 10 11 14 16 15 14 13 14 15 16 17 16 17 16 15 13 13 12 11 11 11 11 10 10 10 11 11 11 11 11 10 10 10 9 8 6 4
5 1 4 8 8 8 9 10 10 10 8 9 10 14 19 20 17 15 13 13 13 13 13 14 14 15 15 15 14 13 12 11 11 10 10 10 9 11 10 11 11 10 10 10 9 9 8 6 4
2 3 7 6 7 6 7 8 8 8 7 10 14 18 21 19 17 15 14 14 13 12 11 10 11 11 13 13 14 12 12 12 10 10 11 8 6 8 11 12 11 10 10 9 9 9 8 7 5
3 4 5 5 7 5 5 6 7 9 6 10 17 20 19 18 16 14 14 13 13 11 10 11 10 7 9 8 10 8 9 11 10 10 9 8 8 9 11 9 9 9 10 9 9 9 8 6 4
4 4 3 3 4 3 3 4 7 9 8 12 17 20 19 17 15 14 13 13 12 10 8 7 9 6 6 6 6 6 6 7 7 9 8 8 5 5 7 6 7 8 7 6 6 7 5 5 4
4 3 3 2 2 2 4 3 6 10 12 15 18 18 17 16 14 13 12 12 13 11 9 7 7 6 5 4 2 5 5 5 7 8 7 8 5 4 5 4 4 5 6 6 3 2 4 3 3
6 6 5 3 1 2 3 5 2 9 12 14 16 16 16 16 15 13 12 11 12 11 9 9 7 7 5 4 1 2 4 5 7 7 8 6 6 5 4 3 3 3 5 5 4 3 3 2 1
7 9 8 4 1 3 3 2 2 7 11 13 14 14 14 14 14 13 13 12 12 11 9 9 8 8 6 5 3 3 3 6 4 6 7 5 6 6 5 3 3 3 4 4 3 3 3 3 3
10 9 8 5 2 3 3 3 4 7 9 11 12 12 12 11 13 12 12 11 11 11 10 9 9 10 8 5 3 2 3 4 4 6 8 6 6 6 4 3 3 5 5 4 2 2 2 2 2
11 9 8 6 4 2 3 4 6 7 8 9 10 12 13 11 11 12 13 12 11 11 10 10 8 10 9 7 4 3 2 2 3 4 6 7 7 7 5 2 3 5 3 3 4 3 2 2 2
8 6 5 3 3 3 4 2 5 7 8 9 11 12 13 13 12 12 12 12 11 11 10 10 9 9 9 6 4 2 2 2 3 4 5 7 7 7 5 3 5 4 2 2 1 2 2 1 2
11 9 6 2 0 3 6 2 2 4 7 9 10 11 13 12 13 13 13 13 12 11 10 10 9 9 8 6 6 5 4 4 4 4 7 8 7 6 4 2 3 3 2 3 3 2 3 3 3
9 9 8 5 1 4 7 4 3 4 4 7 10 12 14 13 13 13 12 12 12 12 11 10 9 10 9 7 5 4 4 4 5 3 5 7 7 7 7 4 3 3 3 3 3 2 2 3 3
10 10 8 8 5 8 8 6 4 6 5 5 8 11 13 15 15 14 13 12 12 12 12 11 10 10 10 8 6 5 3 3 3 4 4 5 7 7 5 5 3 3 4 4 4 4 4 4 3
11 9 8 9 10 9 9 5 4 5 6 5 5 8 11 11 14 14 14 12 12 11 11 9 10 9 9 8 7 7 6 5 5 4 5 5 6 7 6 5 5 4 3 3 5 6 4 4 4
11 8 8 10 11 12 11 7 3 9 7 6 6 7 11 12 13 14 13 12 11 11 10 9 9 8 8 8 8 7 6 5 4 4 4 5 4 6 6 6 5 4 4 4 5 3 4 4 4
10 9 10 12 12 12 11 8 2 5 5 7 7 8 10 12 13 13 12 11 9 10 9 10 9 8 8 8 7 7 7 6 5 5 4 4 3 4 5 5 4 4 4 5 5 4 4 4 4
11 10 8 9 7 6 9 7 2 7 6 6 7 10 10 12 12 12 12 11 10 10 9 10 10 9 8 8 7 7 6 6 6 5 5 4 3 3 4 5 4 4 4 4 3 4 5 5 5
13 14 11 10 5 5 7 7 3 9 8 6 8 11 11 12 12 13 12 11 10 10 9 9 10 8 8 8 7 6 5 4 4 4 4 4 3 3 3 3 4 4 4 4 4 4 4 4 4
15 14 16 16 16 10 5 3 5 7 9 8 9 11 10 11 12 13 13 12 11 10 9 9 9 8 8 7 7 6 5 4 3 3 4 3 2 3 3 3 4 4 3 3 3 3 3 3 4
17 14 9 11 10 11 7 4 1 4 6 9 10 10 11 11 12 13 12 12 11 10 9 9 8 7 7 7 6 6 5 4 3 3 3 2 1 1 2 3 3 3 3 3 3 3 3 3 2
15 15 12 9 10 11 7 1 3 5 6 8 10 11 11 11 10 11 11 11 11 11 10 9 8 7 6 6 5 4 4 4 3 2 2 2 2 2 2 2 2 2 3 3 3 3 3 3 2
16 16 14 10 9 10 10 3 7 7 7 8 9 11 11 11 12 12 12 11 10 11 11 10 9 8 6 5 5 4 4 4 3 3 2 2 2 2 1 1 1 2 2 2 2 2 2 1 2
Wind_Direction
267 258 245 264 259 73 65 63 64 66 64 60 57 63 63 60 74 93 113 115 116 118 119 116 111 110 109 108 108 107 107 107 106 104 102 100 98 97 98 99 101 101 101 100 99 99 101 101 102
282 273 257 261 62 73 70 68 69 70 73 73 69 73 75 74 88 103 113 119 121 123 123 116 115 113 111 110 108 107 108 107 107 106 105 103 101 100 102 102 103 105 104 105 104 102 103 104 105
273 263 264 164 69 74 76 77 78 81 78 80 76 68 72 89 100 112 124 126 120 116 114 117 117 115 113 113 112 111 110 110 110 109 107 105 104 104 104 105 107 107 107 107 106 103 104 105 108
274 265 246 76 76 77 78 84 87 83 79 80 85 81 78 90 109 122 132 125 120 120 119 120 120 118 115 115 115 114 113 112 112 111 110 109 107 106 106 107 108 108 109 109 109 107 106 108 110
265 286 64 81 80 78 78 79 84 81 81 83 89 93 92 96 113 128 134 128 126 122 122 125 124 122 120 118 117 116 114 113 114 114 113 111 109 110 110 108 107 109 111 111 110 109 109 111 115
293 297 72 90 89 83 79 76 78 78 85 96 104 103 104 116 126 137 134 132 126 124 124 128 129 128 127 125 122 120 118 117 117 117 116 114 113 114 114 113 112 113 115 114 114 115 117 117 120
270 316 84 89 91 89 83 82 81 82 83 91 103 108 125 131 136 138 133 130 126 126 131 138 139 136 134 130 128 126 124 123 122 122 121 121 120 119 118 117 117 118 119 119 122 123 124 124 125
303 337 60 87 80 82 79 77 80 82 76 89 113 123 138 139 143 137 133 127 125 131 137 144 147 146 147 140 138 136 134 133 132 132 134 134 131 129 130 126 122 123 124 125 127 130 131 135 141
293 316 57 74 77 82 85 85 80 80 70 73 78 113 134 143 144 141 138 133 131 134 141 147 144 155 154 146 145 147 145 146 146 147 151 155 156 146 141 125 128 130 132 134 137 141 147 153 170
311 32 53 63 77 73 78 93 106 103 103 99 99 111 130 145 150 153 151 147 146 144 140 138 143 154 148 142 147 158 160 158 172 158 164 173 150 137 126 133 138 140 143 146 154 160 168 181 178
341 49 47 54 67 60 66 90 103 102 113 125 128 135 144 150 157 158 158 155 150 150 143 148 145 137 130 132 154 159 154 157 168 158 158 151 140 137 133 142 150 158 164 166 163 181 198 192 178
321 17 23 40 56 57 58 80 85 97 104 125 136 144 150 158 163 163 162 158 149 149 140 140 128 122 113 126 135 140 143 156 151 157 166 149 144 141 140 154 165 170 171 162 178 196 186 158 160
295 319 322 2 45 41 13 48 86 97 105 121 134 143 153 162 164 162 157 153 147 147 145 131 118 110 102 99 123 137 133 147 145 156 161 151 153 148 143 151 171 177 156 161 177 157 125 136 163
312 310 297 297 328 61 20 342 71 113 119 129 140 150 162 164 164 160 157 155 150 150 149 135 135 130 128 129 131 128 143 142 144 158 162 171 153 143 143 160 174 166 159 160 158 146 142 160 137
284 279 272 245 245 122 98 291 205 135 135 139 148 156 161 163 164 162 162 161 157 153 151 145 152 145 152 163 180 155 150 157 153 143 150 176 152 149 159 162 180 160 145 137 155 156 162 176 172
253 257 263 243 194 158 167 199 193 162 151 147 153 155 158 160 164 160 157 158 156 156 155 163 169 157 163 177 179 180 163 149 146 147 157 178 156 164 188 176 172 164 168 169 167 196 192 165 177
246 236 236 215 169 237 240 176 180 172 154 153 160 160 162 166 165 158 157 156 154 155 160 168 170 161 169 177 173 199 154 141 156 163 164 173 174 182 202 192 152 180 182 181 195 166 194 175 195
274 257 236 211 164 232 258 200 175 168 165 164 168 167 166 172 170 160 156 155 152 157 163 168 174 166 170 170 167 198 174 171 183 181 171 174 185 192 201 197 178 199 178 173 161 147 189 201 223
296 310 302 283 58 296 286 270 233 196 181 168 169 167 170 170 165 157 159 160 160 161 166 170 181 172 170 171 177 190 189 192 201 192 179 180 192 200 203 221 177 203 179 180 190 188 202 227 233
280 285 284 278 219 279 287 297 285 253 229 183 175 169 168 165 161 159 162 165 166 167 171 175 182 177 180 180 184 189 186 196 203 197 170 182 190 195 204 206 203 202 185 201 216 203 221 239 228
263 268 284 297 291 266 262 265 219 241 229 195 182 174 169 169 166 165 167 170 172 175 177 182 182 179 183 180 182 189 179 208 206 187 182 193 197 205 208 191 204 207 205 203 214 218 216 233 242
258 264 277 286 286 285 280 274 208 194 220 192 186 167 161 166 163 165 169 173 177 177 177 175 176 176 178 182 192 192 192 201 210 196 186 194 201 202 206 201 201 219 227 203 217 218 221 228 239
262 291 284 278 278 279 277 275 201 173 192 170 170 175 160 158 162 163 165 168 171 171 170 172 172 174 175 186 195 201 204 200 202 194 185 194 200 203 208 206 197 211 227 221 227 227 226 228 236
261 272 271 265 269 266 274 274 216 164 148 148 164 155 144 151 154 153 155 156 162 164 165 167 169 172 175 185 197 203 207 202 195 196 194 200 202 210 213 211 203 207 216 223 226 220 221 227 245
233 246 255 249 250 282 299 273 182 126 121 129 141 134 136 142 146 149 152 156 159 163 166 166 166 173 179 187 197 203 211 208 204 205 201 203 205 207 205 213 206 213 215 217 219 219 225 218 227
221 235 249 267 254 231 233 256 145 121 114 119 130 132 139 147 150 153 155 156 162 167 164 161 165 172 180 186 192 196 204 208 208 207 207 208 211 211 193 205 205 210 217 220 212 224 222 215 225
240 233 252 268 279 277 239 227 139 135 137 145 140 137 145 146 151 153 153 156 161 163 161 162 160 170 179 184 183 187 194 200 202 195 202 217 219 203 187 199 209 208 209 218 211 215 224 210 215
245 249 250 261 278 284 270 276 285 155 160 155 150 149 150 151 153 153 155 156 157 157 154 154 156 167 173 176 182 181 182 187 186 194 196 183 213 230 195 206 209 207 201 212 210 209 203 206 215
224 244 258 274 271 276 283 280 160 173 188 163 153 152 152 151 150 150 150 150 151 148 149 151 151 157 162 166 165 164 161 164 160 167 183 181 194 215 209 201 199 202 202 210 204 207 200 210 220
234 227 234 246 263 273 280 267 157 170 170 151 146 143 145 148 151 150 148 148 150 149 149 151 156 156 155 150 148 151 150 147 150 161 170 176 188 200 204 201 194 214 210 205 201 214 216 217 222
Height
1487 1486 1486 1488 1486 1486 1489 1484 1481 1483 1485 1487 1487 1489 1494 1497 1504 1516 1520 1521 1523 1525 1528 1530 1531 1533 1535 1536 1538 1539 1540 1541 1542 1544 1545 1546 1547 1548 1549 1550 1551 1552 1553 1554 1555 1556 1557 1558 1559
1488 1488 1490 1488 1487 1497 1497 1486 1486 1486 1488 1489 1491 1494 1498 1504 1509 1515 1520 1523 1525 1527 1529 1531 1533 1535 1536 1538 1540 1541 1542 1543 1544 1546 1547 1548 1549 1550 1551 1551 1552 1553 1554 1555 1556 1557 1558 1560 1560
1489 1489 1490 1484 1486 1495 1495 1486 1486 1487 1489 1491 1495 1499 1504 1510 1514 1518 1522 1525 1527 1529 1531 1533 1535 1537 1538 1540 1541 1543 1544 1545 1546 1547 1549 1550 1550 1551 1552 1553 1554 1555 1556 1557 1558 1559 1560 1561 1562
1491 1490 1487 1485 1489 1485 1484 1484 1485 1487 1490 1493 1497 1504 1510 1514 1516 1520 1524 1527 1529 1531 1532 1534 1536 1538 1540 1541 1543 1544 1546 1547 1548 1549 1550 1551 1552 1553 1554 1555 1555 1556 1557 1558 1560 1561 1562 1563 1564
1493 1489 1488 1490 1488 1483 1482 1484 1486 1488 1491 1495 1500 1507 1513 1517 1519 1522 1526 1528 1531 1532 1534 1536 1538 1540 1541 1543 1544 1546 1547 1548 1550 1551 1552 1553 1554 1554 1555 1556 1557 1558 1559 1560 1561 1562 1563 1565 1566
1493 1489 1495 1495 1489 1483 1483 1485 1487 1490 1493 1497 1502 1509 1516 1519 1521 1524 1527 1530 1532 1533 1535 1537 1539 1541 1543 1544 1546 1547 1549 1550 1551 1552 1554 1554 1555 1556 1557 1558 1559 1560 1561 1562 1563 1564 1565 1566 1568
1492 1488 1492 1488 1488 1486 1484 1486 1488 1492 1494 1497 1502 1509 1517 1520 1523 1526 1528 1531 1533 1535 1536 1538 1540 1542 1544 1545 1547 1549 1550 1551 1553 1554 1555 1556 1557 1558 1559 1560 1560 1561 1562 1563 1565 1566 1567 1568 1569
1487 1487 1490 1486 1488 1487 1485 1487 1490 1493 1496 1499 1501 1507 1515 1520 1523 1527 1530 1532 1535 1536 1538 1539 1541 1543 1545 1547 1548 1550 1551 1552 1554 1555 1557 1558 1559 1560 1561 1562 1562 1563 1564 1565 1566 1567 1569 1570 1571
1485 1488 1491 1486 1487 1486 1484 1487 1492 1495 1498 1500 1501 1506 1513 1519 1523 1527 1530 1533 1536 1538 1540 1541 1543 1545 1546 1548 1549 1551 1552 1554 1555 1557 1558 1559 1560 1562 1562 1564 1564 1565 1566 1567 1568 1569 1571 1572 1573
1483 1488 1486 1481 1481 1483 1484 1487 1491 1495 1499 1502 1506 1510 1515 1519 1523 1527 1530 1533 1536 1539 1541 1543 1544 1547 1549 1550 1550 1552 1554 1555 1556 1558 1559 1561 1562 1564 1565 1565 1566 1567 1568 1569 1570 1571 1572 1574 1575
1481 1484 1481 1480 1482 1484 1485 1486 1489 1493 1498 1502 1506 1511 1516 1519 1523 1527 1530 1533 1536 1539 1541 1543 1545 1548 1549 1551 1552 1553 1555 1556 1558 1559 1561 1562 1563 1565 1566 1567 1568 1569 1570 1571 1572 1573 1574 1575 1577
1483 1481 1482 1481 1483 1484 1485 1486 1489 1492 1496 1501 1505 1510 1515 1519 1523 1526 1529 1533 1535 1538 1541 1543 1545 1548 1549 1551 1553 1554 1556 1557 1559 1560 1561 1563 1564 1566 1567 1568 1569 1570 1571 1572 1573 1574 1575 1577 1578
1483 1483 1482 1482 1483 1485 1487 1487 1489 1493 1497 1502 1506 1511 1515 1519 1523 1526 1529 1532 1534 1537 1540 1542 1543 1546 1548 1550 1553 1555 1556 1558 1559 1561 1562 1564 1565 1566 1568 1569 1570 1571 1572 1573 1574 1575 1577 1578 1579
1486 1484 1482 1482 1482 1485 1489 1490 1491 1493 1498 1502 1506 1511 1514 1518 1522 1525 1528 1531 1533 1536 1539 1541 1541 1544 1547 1549 1552 1555 1557 1558 1560 1561 1562 1564 1565 1566 1568 1569 1570 1572 1573 1574 1575 1576 1577 1578 1579
1488 1486 1483 1480 1481 1484 1488 1495 1492 1493 1497 1501 1506 1510 1514 1517 1521 1524 1527 1530 1533 1535 1537 1539 1541 1543 1546 1549 1551 1554 1556 1558 1560 1561 1562 1564 1565 1566 1568 1569 1570 1572 1573 1574 1575 1576 1577 1578 1579
1486 1488 1492 1482 1480 1482 1490 1503 1492 1491 1494 1499 1505 1509 1513 1517 1520 1523 1526 1529 1532 1534 1536 1538 1540 1542 1545 1548 1550 1553 1555 1557 1558 1560 1561 1563 1565 1566 1567 1569 1570 1572 1573 1574 1575 1576 1577 1578 1579
1486 1493 1491 1482 1478 1479 1484 1493 1488 1489 1493 1497 1502 1507 1512 1516 1519 1522 1525 1527 1530 1532 1534 1537 1539 1541 1544 1546 1549 1551 1553 1555 1557 1559 1560 1562 1564 1565 1567 1568 1570 1571 1572 1573 1574 1575 1576 1577 1578
1492 1486 1483 1482 1476 1478 1482 1484 1483 1486 1490 1494 1499 1504 1509 1514 1517 1521 1523 1526 1528 1531 1533 1535 1538 1540 1542 1545 1547 1549 1552 1553 1556 1558 1559 1561 1563 1565 1566 1567 1569 1570 1571 1572 1573 1574 1575 1576 1577
1482 1483 1485 1478 1473 1479 1482 1483 1482 1484 1487 1491 1497 1501 1506 1511 1516 1519 1522 1525 1527 1529 1531 1533 1536 1538 1540 1543 1545 1547 1550 1552 1554 1556 1558 1559 1561 1563 1565 1566 1567 1569 1570 1571 1572 1574 1574 1575 1576
1485 1488 1485 1477 1473 1480 1483 1484 1482 1483 1486 1489 1493 1498 1503 1509 1513 1517 1521 1523 1525 1527 1529 1531 1534 1536 1539 1541 1543 1546 1549 1551 1553 1555 1556 1557 1559 1561 1563 1565 1566 1567 1568 1569 1571 1572 1572 1573 1574
1487 1488 1485 1484 1477 1476 1482 1490 1487 1484 1485 1488 1490 1495 1499 1505 1509 1514 1518 1521 1524 1525 1527 1529 1531 1534 1537 1540 1542 1545 1547 1549 1551 1552 1553 1556 1558 1559 1561 1562 1564 1565 1566 1567 1568 1569 1570 1571 1572
1491 1479 1480 1483 1487 1488 1483 1501 1491 1485 1485 1485 1489 1492 1497 1502 1507 1512 1515 1519 1522 1524 1526 1528 1530 1533 1535 1538 1540 1543 1544 1546 1548 1550 1551 1553 1555 1557 1558 1559 1561 1562 1563 1564 1565 1566 1568 1569 1570
1483 1477 1480 1483 1487 1491 1484 1493 1493 1483 1488 1486 1488 1491 1495 1500 1505 1510 1513 1517 1521 1523 1525 1527 1529 1531 1533 1535 1538 1540 1543 1545 1546 1548 1549 1551 1553 1554 1555 1557 1558 1559 1560 1561 1562 1563 1564 1566 1567
1479 1482 1484 1484 1488 1504 1491 1493 1495 1482 1482 1483 1485 1489 1494 1499 1504 1509 1513 1516 1520 1522 1524 1525 1527 1529 1531 1534 1536 1538 1540 1542 1544 1545 1547 1548 1550 1551 1552 1554 1555 1556 1557 1558 1559 1560 1561 1562 1563
1482 1495 1507 1510 1512 1514 1494 1492 1486 1474 1474 1479 1483 1488 1494 1498 1503 1508 1512 1516 1519 1521 1523 1524 1526 1527 1530 1532 1534 1536 1538 1540 1541 1543 1544 1546 1547 1548 1549 1551 1552 1553 1554 1555 1556 1557 1558 1559 1560
1482 1489 1509 1518 1517 1514 1501 1495 1479 1469 1474 1479 1483 1488 1494 1498 1502 1507 1511 1514 1517 1520 1522 1523 1525 1526 1528 1530 1532 1534 1536 1538 1539 1540 1541 1543 1544 1545 1546 1548 1548 1549 1550 1551 1552 1553 1554 1555 1557
1482 1483 1479 1489 1492 1500 1496 1484 1477 1472 1475 1479 1483 1488 1493 1497 1502 1506 1510 1513 1516 1519 1521 1522 1524 1525 1527 1529 1530 1532 1534 1535 1537 1538 1539 1540 1541 1543 1544 1545 1545 1546 1547 1548 1549 1550 1551 1552 1553
1474 1474 1481 1491 1506 1511 1499 1496 1493 1483 1480 1479 1482 1487 1492 1497 1501 1506 1509 1512 1515 1518 1520 1522 1523 1525 1526 1528 1529 1531 1532 1534 1535 1536 1537 1537 1538 1540 1541 1542 1543 1543 1544 1545 1546 1547 1548 1549 1550
1477 1480 1481 1483 1486 1503 1510 1507 1481 1481 1478 1478 1481 1486 1491 1496 1501 1504 1509 1512 1515 1517 1519 1521 1522 1524 1525 1527 1528 1529 1531 1532 1533 1534 1534 1535 1536 1538 1538 1539 1540 1541 1541 1542 1543 1544 1545 1546 1547
1467 1473 1479 1495 1495 1489 1497 1496 1472 1474 1473 1476 1480 1485 1491 1496 1500 1504 1508 1512 1514 1517 1519 1520 1522 1523 1524 1526 1527 1528 1529 1530 1531 1532 1533 1534 1535 1536 1536 1537 1538 1538 1539 1540 1540 1541 1542 1543 1543